CW5306 Weather Reports


time (UTC)temp
F
wind
direction
speed
knots
gust
knots
rain 1hr
in
rain 24hr
in
rain mn
in
humidity
%
barometer
mb
20260905130327 76 55 5.2 17.4 0.00 0.02 0.00 83 1011.3
20260905125827 77 62 7.8 17.4 0.00 0.02 0.00 83 1011.4
20260905125559 77 91 9.6 16.5 0.00 0.02 0.00 81 1011.3
20260905125434 77 60 7.8 17.4 0.00 0.02 0.00 82 1011.2
20260905124558 77 67 8.7 17.4 0.00 0.02 0.00 81 1011.4
20260905123829 77 85 7.0 17.4 0.00 0.02 0.00 81 1011.4
20260905123327 77 40 8.7 17.4 0.00 0.02 0.00 80 1011.2
20260905122828 77 73 7.0 17.4 0.00 0.02 0.00 81 1011.3
20260905122328 77 63 8.7 17.4 0.00 0.02 0.00 81 1011.5
20260905122058 77 96 7.8 17.4 0.00 0.02 0.00 81 1011.3
20260905121604 77 61 4.3 18.2 0.00 0.02 0.00 80 1011.5
20260905121327 77 45 7.8 17.4 0.00 0.02 0.00 80 1011.5
20260905120315 77 54 10.4 16.5 0.00 0.03 0.00 79 1011.8
20260905115815 77 139 12.2 16.5 0.00 0.03 0.00 78 1011.8
20260905115306 77 100 5.2 14.8 0.00 0.03 0.00 79 1011.9
20260905114803 77 100 7.0 14.8 0.00 0.03 0.00 79 1012.0
20260905114303 77 66 2.6 17.4 0.00 0.03 0.00 78 1011.9
20260905113804 77 84 9.6 17.4 0.00 0.03 0.00 79 1012.2
20260905113304 77 52 3.5 16.5 0.00 0.03 0.00 81 1012.1
20260905112804 77 33 8.7 17.4 0.00 0.03 0.00 80 1012.2
20260905112535 77 91 4.3 17.4 0.00 0.03 0.00 80 1011.9
20260905112254 77 72 7.0 17.4 0.00 0.03 0.00 79 1012.1
20260905111253 77 101 11.3 17.4 0.00 0.03 0.00 79 1012.3
20260905110739 77 74 7.0 18.2 0.00 0.03 0.00 80 1012.0
20260905110240 77 71 7.8 20.0 0.00 0.03 0.00 79 1012.3
20260905105740 77 80 7.0 20.0 0.00 0.03 0.00 78 1012.3
20260905105240 77 98 8.7 17.4 0.00 0.03 0.00 78 1012.2
20260905104739 78 145 7.8 25.2 0.00 0.03 0.00 78 1012.4
20260905104241 77 72 11.3 25.2 0.00 0.03 0.00 77 1012.2
20260905103739 78 112 8.7 14.8 0.00 0.03 0.00 78 1012.6
20260905103242 78 91 11.3 17.4 0.00 0.03 0.00 79 1012.6
20260905102741 78 49 7.8 17.4 0.00 0.03 0.00 79 1012.5
20260905102240 78 73 11.3 13.9 0.00 0.03 0.00 79 1012.5
20260905101739 78 95 7.0 14.8 0.00 0.03 0.00 79 1012.5
20260905101239 78 109 9.6 16.5 0.00 0.03 0.00 79 1012.4
20260905100739 77 62 8.7 16.5 0.00 0.03 0.00 78 1012.7
20260905100239 77 59 12.2 16.5 0.00 0.03 0.00 79 1012.8
20260905100011 77 85 11.3 20.0 0.00 0.03 0.03 80 1012.8
20260905095239 77 99 7.8 20.0 0.00 0.03 0.03 79 1012.8
20260905094740 77 77 7.0 16.5 0.00 0.03 0.03 80 1012.9
20260905094240 77 77 7.0 20.0 0.00 0.03 0.03 80 1013.1
20260905093739 77 54 7.8 20.0 0.00 0.03 0.03 80 1013.0
20260905093239 77 79 11.3 20.0 0.00 0.03 0.03 78 1013.3
20260905093010 77 81 10.4 18.2 0.00 0.03 0.03 79 1013.1
20260905092239 78 19 8.7 18.2 0.00 0.03 0.03 80 1013.2
20260905091739 78 56 13.0 16.5 0.00 0.03 0.03 79 1013.1
20260905091511 78 120 5.2 16.5 0.00 0.03 0.03 79 1013.0
20260905090740 78 106 9.6 14.8 0.00 0.03 0.03 79 1013.2
20260905090241 78 73 7.0 20.0 0.00 0.03 0.03 78 1013.4
20260905085742 78 87 9.6 20.0 0.00 0.03 0.03 78 1013.5
20260905085512 78 89 7.0 14.8 0.00 0.03 0.03 79 1013.2
20260905084740 78 87 5.2 14.8 0.00 0.03 0.03 79 1013.4
20260905084241 78 20 8.7 14.8 0.00 0.03 0.03 78 1013.4
20260905083740 78 98 9.6 14.8 0.00 0.03 0.03 78 1013.3
20260905083240 78 125 9.6 14.8 0.00 0.03 0.03 78 1013.6
20260905082741 78 97 3.5 14.8 0.00 0.03 0.03 78 1013.6
20260905082240 78 98 6.1 16.5 0.00 0.03 0.03 78 1013.6
20260905082010 78 50 8.7 18.2 0.00 0.03 0.03 77 1013.5
20260905081255 78 106 7.0 18.2 0.00 0.03 0.03 78 1013.5
20260905080740 78 98 6.1 16.5 0.00 0.04 0.03 78 1013.7
20260905080240 78 78 7.0 17.4 0.00 0.04 0.03 78 1013.7
20260905075739 78 81 7.0 17.4 0.00 0.04 0.03 78 1013.8
20260905075238 78 81 2.6 17.4 0.00 0.04 0.03 79 1013.6
20260905074734 78 89 5.2 18.2 0.00 0.07 0.03 78 1013.6
20260905074728 78 107 6.1 17.4 0.00 0.04 0.03 79 1013.5
20260905073729 78 61 7.0 18.2 0.00 0.07 0.03 78 1013.8
20260905073227 78 120 10.4 17.4 0.00 0.07 0.03 78 1013.7
20260905072728 78 92 9.6 17.4 0.00 0.07 0.03 78 1013.6
20260905072228 78 77 8.7 17.4 0.00 0.07 0.03 78 1013.5
20260905071728 78 78 6.1 17.4 0.00 0.07 0.03 78 1013.6
20260905071228 77 76 7.8 14.8 0.00 0.07 0.03 77 1013.7
20260905070728 78 87 5.2 14.8 0.00 0.07 0.03 78 1013.5
20260905070227 78 82 4.3 14.8 0.00 0.07 0.03 78 1013.5
20260905065727 78 122 6.1 14.8 0.00 0.07 0.03 78 1013.5
20260905065458 78 59 5.2 13.0 0.00 0.07 0.03 78 1013.4
20260905064728 78 56 7.0 13.9 0.00 0.07 0.03 78 1013.4
20260905064228 78 85 10.4 20.0 0.00 0.07 0.03 78 1013.2
20260905063728 78 64 7.8 20.0 0.00 0.07 0.03 77 1013.1
20260905063501 78 111 7.0 14.8 0.00 0.07 0.03 77 1013.0
20260905062729 78 74 8.7 17.4 0.00 0.07 0.03 77 1013.1
20260905062227 78 75 6.1 18.2 0.00 0.07 0.03 77 1013.2
20260905061728 78 55 5.2 18.2 0.00 0.07 0.03 76 1012.9
20260905061228 78 85 4.3 16.5 0.00 0.07 0.03 76 1013.0
20260905060727 78 97 7.8 16.5 0.00 0.07 0.03 76 1012.9
20260905060227 78 62 9.6 14.8 0.00 0.07 0.03 76 1012.9
20260905055729 78 86 9.6 16.5 0.00 0.07 0.03 75 1013.0
20260905055228 78 82 8.7 16.5 0.00 0.07 0.03 74 1013.0
20260905054728 78 78 6.1 14.8 0.00 0.07 0.03 74 1012.7
20260905054458 78 81 3.5 14.8 0.00 0.07 0.03 74 1012.7
20260905053727 78 59 5.2 16.5 0.00 0.07 0.03 74 1012.8
20260905053228 78 98 9.6 16.5 0.00 0.07 0.03 74 1012.9
20260905052728 78 59 7.8 13.0 0.00 0.07 0.03 75 1012.7
20260905052500 78 119 7.8 17.4 0.00 0.07 0.03 75 1012.5
20260905051729 78 104 9.6 17.4 0.00 0.07 0.03 75 1012.4
20260905051227 78 85 9.6 16.5 0.00 0.07 0.03 75 1012.2
20260905050728 78 127 8.7 16.5 0.00 0.07 0.03 73 1012.6
20260905050227 78 97 5.2 16.5 0.00 0.07 0.03 71 1012.4
20260905045728 78 92 1.7 18.2 0.00 0.07 0.03 71 1012.3
20260905045229 78 82 3.5 14.8 0.00 0.07 0.03 70 1012.3
20260905044727 78 106 7.8 17.4 0.00 0.07 0.03 72 1012.3
20260905044227 78 73 7.0 17.4 0.00 0.07 0.03 71 1012.1
20260905043728 78 57 7.8 16.5 0.00 0.07 0.03 72 1012.0
20260905043228 78 68 4.3 13.9 0.00 0.07 0.03 71 1012.0
20260905042728 78 93 0.0 17.4 0.00 0.07 0.03 69 1012.0
20260905042228 78 109 1.7 17.4 0.00 0.07 0.03 70 1011.8
20260905041727 79 91 7.8 13.9 0.00 0.07 0.03 71 1012.0
20260905041458 79 78 7.0 13.9 0.00 0.07 0.03 71 1011.7
20260905041334 79 113 7.0 13.9 0.00 0.07 0.03 71 1011.9
20260905040459 79 65 5.2 16.5 0.00 0.07 0.03 71 1011.7
20260905035729 79 110 0.0 16.5 0.00 0.07 0.03 71 1011.6
20260905035228 79 112 5.2 16.5 0.00 0.07 0.03 70 1011.7
20260905034728 79 102 0.0 13.9 0.00 0.07 0.03 69 1011.7
20260905034228 80 111 5.2 13.0 0.00 0.07 0.03 69 1011.6
20260905034004 80 85 0.0 17.4 0.00 0.07 0.03 70 1011.9
20260905033228 80 105 6.1 17.4 0.00 0.07 0.03 69 1011.5
20260905032729 80 89 7.8 17.4 0.00 0.07 0.03 69 1011.6
20260905032458 80 110 9.6 17.4 0.00 0.07 0.03 69 1011.5
20260905031728 80 93 5.2 14.8 0.00 0.07 0.03 66 1011.6
20260905031229 80 90 3.5 14.8 0.00 0.07 0.03 70 1011.7
20260905030729 80 68 2.6 13.0 0.00 0.07 0.03 68 1011.8
20260905030228 80 78 1.7 14.8 0.00 0.07 0.03 68 1011.6
20260905025729 80 64 0.9 14.8 0.00 0.07 0.03 67 1011.8
20260905025458 80 61 10.4 20.0 0.00 0.07 0.03 68 1011.6
20260905024728 81 66 1.7 20.0 0.00 0.07 0.03 67 1011.7
20260905024228 82 86 7.0 14.8 0.00 0.07 0.03 67 1011.8
20260905023727 81 104 9.6 16.5 0.00 0.07 0.03 66 1011.5
20260905023229 81 37 5.2 17.4 0.00 0.07 0.03 65 1011.6
20260905022727 81 112 11.3 17.4 0.00 0.07 0.03 67 1011.6
20260905022227 81 72 7.0 16.5 0.00 0.07 0.03 67 1011.7
20260905021727 81 127 11.3 14.8 0.00 0.07 0.03 67 1011.6
20260905021227 82 120 11.3 18.2 0.00 0.07 0.03 67 1011.6
20260905020959 82 150 9.6 18.2 0.00 0.07 0.03 67 1011.7
20260905020228 82 64 7.8 14.8 0.00 0.07 0.03 66 1011.6
20260905015728 82 83 8.7 13.0 0.00 0.07 0.03 68 1011.6
20260905015227 82 96 9.6 14.8 0.00 0.07 0.03 66 1011.3
20260905014727 82 74 9.6 14.8 0.00 0.07 0.03 67 1011.6
20260905014227 82 114 7.8 14.8 0.00 0.07 0.03 62 1011.6
20260905013730 82 21 7.0 14.8 0.00 0.07 0.03 64 1011.9
20260905013229 82 53 7.0 20.9 0.00 0.07 0.03 63 1011.6
20260905012729 82 83 7.8 20.9 0.00 0.07 0.03 64 1011.5
20260905012228 82 106 7.0 14.8 0.00 0.07 0.03 65 1011.5
20260905011729 82 66 9.6 13.9 0.00 0.07 0.03 64 1011.7
20260905011227 82 76 5.2 16.5 0.00 0.07 0.03 66 1011.7
20260905010733 82 74 8.7 18.2 0.00 0.07 0.03 67 1011.4
20260905010728 82 41 7.0 16.5 0.00 0.07 0.03 65 1011.6
20260905005728 83 75 5.2 18.2 0.00 0.07 0.03 65 1011.7
20260905005228 82 93 12.2 18.2 0.00 0.07 0.03 63 1011.6
20260905004728 82 78 8.7 18.2 0.00 0.07 0.03 64 1011.9
20260905004227 82 89 10.4 18.2 0.00 0.07 0.03 65 1011.4
20260905003728 83 77 10.4 17.4 0.00 0.07 0.03 62 1011.7
20260905003228 82 51 11.3 21.7 0.00 0.07 0.03 66 1011.7
20260905002958 83 78 11.3 17.4 0.00 0.07 0.03 64 1011.7
20260905002228 82 95 9.6 18.2 0.00 0.07 0.03 63 1011.8
20260905001729 83 85 9.6 18.2 0.00 0.07 0.03 65 1012.1
20260905001227 83 99 11.3 20.9 0.00 0.07 0.03 65 1011.9
20260905000727 83 97 7.0 20.9 0.00 0.07 0.03 65 1012.0
20260905000501 83 107 9.6 18.2 0.00 0.07 0.03 64 1012.2
20260904235727 83 116 7.8 18.2 0.00 0.07 0.03 65 1012.4
20260904235228 83 105 9.6 20.0 0.00 0.07 0.03 64 1012.4
20260904234728 83 70 11.3 20.0 0.00 0.07 0.03 63 1012.5
20260904234228 83 112 9.6 17.4 0.00 0.07 0.03 64 1012.6
20260904233959 83 83 10.4 20.9 0.00 0.07 0.03 63 1012.7
20260904233228 83 91 11.3 20.9 0.00 0.07 0.03 62 1012.7
20260904232959 83 89 13.0 18.2 0.00 0.07 0.03 63 1013.0
20260904232228 83 90 7.8 22.6 0.00 0.07 0.03 64 1012.7
20260904231733 83 83 11.3 20.9 0.00 0.07 0.03 67 1013.0
20260904231727 83 99 9.6 22.6 0.00 0.07 0.03 66 1013.0
20260904230727 83 99 7.0 20.9 0.00 0.07 0.03 70 1012.9
20260904230227 83 86 11.3 20.0 0.00 0.07 0.03 69 1012.9
20260904225728 83 52 7.8 20.0 0.00 0.07 0.03 68 1012.9
20260904225234 82 122 10.4 21.7 0.00 0.07 0.03 69 1013.0
20260904225228 83 84 9.6 21.7 0.00 0.07 0.03 69 1013.0
20260904224229 83 132 10.4 20.0 0.00 0.07 0.03 67 1013.1
20260904223727 83 77 7.0 20.9 0.00 0.07 0.03 68 1013.1
20260904223227 83 104 8.7 20.9 0.00 0.07 0.03 68 1013.2
20260904222727 83 61 7.0 20.0 0.00 0.07 0.03 68 1013.7
20260904222229 83 102 11.3 21.7 0.00 0.07 0.03 69 1013.1
20260904221727 82 96 11.3 22.6 0.00 0.07 0.03 70 1013.5
20260904221228 82 102 11.3 22.6 0.00 0.07 0.03 69 1013.3
20260904220728 83 77 8.7 20.9 0.00 0.07 0.03 68 1013.4
20260904220228 83 71 13.0 22.6 0.00 0.07 0.03 68 1013.5
20260904215729 83 79 10.4 22.6 0.00 0.07 0.03 69 1013.5
20260904215228 83 53 7.8 20.0 0.00 0.07 0.03 71 1013.5
20260904214728 83 102 12.2 20.0 0.00 0.07 0.03 71 1013.5
20260904214227 82 83 13.9 20.0 0.00 0.07 0.03 70 1013.6
20260904213727 82 93 13.9 25.2 0.00 0.07 0.03 71 1013.6
20260904213227 82 79 16.5 22.6 0.00 0.07 0.03 71 1013.2
20260904212729 82 75 12.2 22.6 0.00 0.07 0.03 72 1013.8
20260904212228 82 84 12.2 22.6 0.00 0.07 0.03 72 1013.6
20260904211729 82 46 7.0 22.6 0.00 0.07 0.03 72 1013.6
20260904211228 81 120 11.3 20.9 0.00 0.07 0.03 71 1013.6
20260904210727 82 84 12.2 20.9 0.00 0.07 0.03 71 1013.6
20260904210228 82 79 9.6 18.2 0.00 0.07 0.03 71 1014.0
20260904205727 82 72 9.6 20.0 0.00 0.07 0.03 72 1014.0
20260904205227 81 93 9.6 22.6 0.00 0.07 0.03 70 1013.6
20260904204728 81 59 13.9 22.6 0.00 0.07 0.03 71 1013.7
20260904204500 81 65 10.4 20.9 0.00 0.07 0.03 72 1013.9
20260904204336 81 77 10.4 18.2 0.00 0.07 0.03 73 1013.7
20260904203458 81 47 10.4 20.0 0.00 0.07 0.03 73 1013.7
20260904202727 80 84 11.3 20.0 0.00 0.07 0.03 71 1013.8
20260904202229 81 70 12.2 20.0 0.00 0.07 0.03 73 1013.8
20260904201959 81 87 9.6 20.0 0.00 0.07 0.03 74 1013.5
20260904201228 81 84 10.4 20.0 0.00 0.07 0.03 73 1013.7
20260904200730 80 88 7.8 20.0 0.00 0.07 0.03 73 1013.5
20260904200228 80 62 7.0 21.7 0.00 0.07 0.03 74 1013.5
20260904200001 80 69 14.8 21.7 0.00 0.07 0.03 73 1013.4
20260904195228 80 85 7.8 20.9 0.00 0.07 0.03 74 1013.6
20260904194727 80 84 9.6 18.2 0.00 0.07 0.03 74 1013.5
20260904194227 80 109 11.3 18.2 0.00 0.07 0.03 75 1013.5
20260904193727 80 40 7.8 24.3 0.00 0.07 0.03 74 1013.4
20260904193227 80 77 12.2 24.3 0.00 0.07 0.03 74 1013.5
20260904192727 80 78 7.8 21.7 0.00 0.07 0.03 74 1013.6
20260904192228 79 52 11.3 21.7 0.00 0.07 0.03 74 1013.6
20260904191728 79 65 15.6 22.6 0.00 0.07 0.03 73 1013.5
20260904191228 79 81 14.8 22.6 0.00 0.07 0.03 73 1013.9
20260904190727 79 95 7.8 24.3 0.00 0.07 0.03 72 1013.7
20260904190459 79 67 11.3 24.3 0.00 0.07 0.03 73 1013.5
20260904185959 79 92 9.6 20.0 0.00 0.07 0.03 72 1013.6
20260904185227 79 74 11.3 20.0 0.00 0.07 0.03 74 1013.5
20260904184727 78 65 9.6 20.0 0.00 0.07 0.03 76 1013.6
20260904184227 78 103 5.2 21.7 0.00 0.07 0.03 76 1013.4
20260904183727 78 82 9.6 21.7 0.00 0.07 0.03 75 1013.6
20260904183227 78 51 13.9 20.9 0.00 0.07 0.03 76 1013.4
20260904182727 78 69 9.6 20.9 0.00 0.07 0.03 77 1013.7
20260904182228 78 80 9.6 17.4 0.00 0.07 0.03 76 1013.2
20260904181728 78 69 9.6 21.7 0.00 0.07 0.03 76 1013.4
20260904181227 78 94 13.9 21.7 0.00 0.07 0.03 75 1013.2
20260904180727 78 61 9.6 20.9 0.00 0.07 0.03 77 1013.1
20260904180228 78 73 12.2 20.9 0.00 0.07 0.03 78 1013.1
20260904180107 77 68 11.3 22.6 0.00 0.07 0.03 77 1013.3
20260904175959 78 86 12.2 22.6 0.00 0.07 0.03 79 1013.3
20260904174727 77 81 9.6 20.9 0.00 0.07 0.03 79 1013.2
20260904174228 77 103 7.0 21.7 0.00 0.07 0.03 80 1013.3
20260904173728 76 113 7.0 21.7 0.00 0.07 0.03 80 1013.3
20260904173227 76 63 16.5 20.0 0.00 0.07 0.03 81 1013.0
20260904172727 76 113 7.8 18.2 0.00 0.07 0.03 81 1013.1
20260904172459 76 97 4.3 17.4 0.00 0.07 0.03 80 1013.1
20260904171959 76 95 11.3 24.3 0.00 0.07 0.03 81 1013.0
20260904171229 76 58 8.7 24.3 0.00 0.07 0.03 82 1012.9
20260904170728 76 59 8.7 18.2 0.00 0.07 0.03 83 1012.8
20260904170459 76 105 7.0 18.2 0.00 0.07 0.03 83 1012.8
20260904165728 76 109 4.3 18.2 0.00 0.07 0.03 80 1012.6
20260904165228 76 101 7.0 18.2 0.00 0.07 0.03 79 1012.8
20260904164728 76 64 7.8 18.2 0.00 0.07 0.03 79 1012.6
20260904164229 76 93 7.8 14.8 0.01 0.07 0.03 79 1012.7
20260904163733 76 128 9.6 16.5 0.01 0.07 0.03 79 1012.5
20260904163728 76 131 5.2 14.8 0.01 0.07 0.03 79 1012.5
20260904162728 75 106 6.1 20.0 0.01 0.07 0.03 80 1012.8
20260904162500 75 110 7.0 20.0 0.01 0.07 0.03 83 1012.7
20260904161728 74 73 9.6 20.9 0.01 0.07 0.03 84 1012.6
20260904161233 74 96 9.6 20.9 0.01 0.08 0.03 85 1012.7
20260904161229 74 81 9.6 14.8 0.01 0.08 0.03 86 1012.6
20260904160227 74 90 9.6 17.4 0.01 0.08 0.03 86 1012.6
20260904155727 74 115 7.8 17.4 0.01 0.08 0.03 86 1012.8
20260904155228 74 109 7.0 21.7 0.01 0.08 0.03 86 1012.5
20260904154728 76 118 7.0 21.7 0.01 0.07 0.03 84 1012.8
20260904154228 77 91 10.4 18.2 0.00 0.07 0.02 83 1012.5
20260904153728 77 126 3.5 14.8 0.00 0.07 0.02 81 1012.3
20260904153227 77 71 7.8 18.2 0.00 0.07 0.02 81 1012.3
20260904152727 77 116 7.8 18.2 0.00 0.07 0.02 81 1012.3
20260904152228 76 94 7.0 14.8 0.00 0.07 0.02 82 1012.5
20260904151728 76 98 3.5 16.5 0.00 0.07 0.02 82 1012.7
20260904151228 76 79 4.3 16.5 0.00 0.07 0.02 83 1012.6
20260904150727 75 136 4.3 14.8 0.00 0.07 0.02 84 1012.6
20260904150227 75 110 6.1 13.9 0.00 0.07 0.02 87 1012.6
20260904145959 75 48 6.1 9.6 0.00 0.07 0.02 87 1012.5
20260904145458 75 117 6.1 9.6 0.00 0.07 0.02 87 1012.6
20260904144728 75 100 3.5 8.7 0.00 0.07 0.02 87 1012.6
20260904144459 74 106 3.5 11.3 0.00 0.07 0.02 86 1012.5
20260904143727 74 108 4.3 13.9 0.00 0.07 0.02 86 1012.7
20260904143228 74 69 6.1 20.9 0.00 0.07 0.02 85 1012.6
20260904142729 74 114 9.6 20.9 0.00 0.07 0.02 85 1012.6
20260904142227 75 135 7.0 20.9 0.00 0.07 0.02 85 1012.7
20260904141727 76 122 9.6 17.4 0.00 0.07 0.02 84 1012.3
20260904141500 76 104 4.3 17.4 0.00 0.07 0.02 82 1012.4
20260904140728 76 98 5.2 14.8 0.00 0.07 0.02 82 1012.5
20260904140227 75 97 7.0 16.5 0.00 0.07 0.02 83 1012.5
20260904135727 76 93 11.3 17.4 0.00 0.07 0.02 85 1012.2
20260904135229 75 103 4.3 18.2 0.00 0.07 0.02 85 1012.4
20260904134727 75 128 12.2 18.2 0.00 0.07 0.02 85 1012.4
20260904134228 74 73 6.1 11.3 0.00 0.07 0.02 87 1012.6
20260904133727 74 112 4.3 12.2 0.00 0.07 0.02 87 1012.6
20260904133228 74 88 6.1 13.0 0.00 0.07 0.02 88 1012.6
20260904133001 74 48 7.8 13.9 0.00 0.07 0.02 88 1012.6
20260904132228 74 97 9.6 14.8 0.00 0.07 0.02 88 1012.4
20260904131727 74 78 7.8 22.6 0.00 0.07 0.02 89 1012.5
20260904131228 74 93 5.2 22.6 0.00 0.07 0.02 89 1012.6
20260904130728 74 71 12.2 20.9 0.01 0.07 0.02 89 1012.5